{"data":{"norad_id":63705,"intl_designator":"2025-087J","name":"STARLINK-33848","alt_names":[],"object_type":"PAYLOAD","status":"ACTIVE","operator":null,"country":"US","launch_date":"2025-04-28","launch_site_code":"AFWTR","launch_vehicle":null,"mission":null,"orbit_class":"UNKNOWN","rcs_meters":null,"size_class":null,"mass_kg":null,"dimensions":null,"purposes":["comms"],"wikipedia_slug":null,"has_3d_model":false,"image_url":null,"decayed_at":null,"tle_current":{"epoch":"2026-05-25T04:26:49.856064Z","epoch_age_seconds":62117,"freshness":"FRESH","line1":"1 63705U 25087J   26145.18529926  .00016890  00000+0  58092-3 0  9993","line2":"2 63705  53.1563 224.0854 0001121  87.5192 272.5937 15.30209512 60906","mean_motion":15.30209512,"eccentricity":0.0001121,"inclination_deg":53.1563,"raan_deg":224.0854,"arg_perigee_deg":87.5192,"mean_anomaly_deg":272.5937,"bstar":0.00058092,"rev_number":6090,"period_min":94.104760734228,"perigee_km":474.41841086576,"apogee_km":475.95492603223,"semimajor_km":6853.323668449,"source":"CELESTRAK","updated_at":"2026-05-25T13:38:20.097653Z"}}}